Weather History for KRQB - November, 2012

Change the Weather History Date:

Saturday, November 3, 2012

  Actual Average Record
Temperature  
Mean Temperature 37 °F -  
Max Temperature 41 °F 49 °F 73 °F (1987)
Min Temperature 33 °F 32 °F 16 °F (1989)
Degree Days  
Heating Degree Days 28    
Moisture  
Dew Point 29 °F    
Average Humidity 75    
Maximum Humidity 94    
Minimum Humidity 57    
Precipitation  
Precipitation 0.00 in - - ()
Sea Level Pressure  
Sea Level Pressure 30.16 in    
Wind  
Wind Speed 5 mph (North)    
Max Wind Speed 10 mph    
Max Gust Speed -    
Visibility 10 miles    
Events Snow    
Averages and records for this station are not official NWS values.
T = Trace of Precipitation, MM = Missing Value Source: NWS Daily Summary

Daily Weather History Graph

Daily Weather History Graph

Search for Another Location

Airport or City:

Trip Planner

Search our weather history database for the weather conditions in past years. The results will help you decide how hot, cold, wet, or windy it might be!

Date:

Astronomy

Nov. 03, 2012 Rise Set
Actual Time 8:21 AM EDT 6:29 PM EDT
Civil Twilight 7:51 AM EDT 6:59 PM EDT
Nautical Twilight 7:16 AM EDT 7:33 PM EDT
Astronomical Twilight 6:43 AM EDT 8:06 PM EDT
Moon 10:06 PM EDT (11/3) 12:28 PM EDT (11/3)
Length of Visible Light 11h 08m
Length of Day
10h 08m
Waning Gibbous, 80% of the Moon is Illuminated
Nov 3
Waning Gibbous
Nov 6
Last Quarter
Nov 13
New
Nov 20
First Quarter
Nov 28
Full

Hourly Weather History & Observations

Time (EDT) Temp. Windchill Dew Point Humidity Pressure Visibility Wind Dir Wind Speed Gust Speed Precip Events Conditions
12:14 AM 34.7 °F 31.8 °F 32.0 °F 90% 30.10 in 10.0 mi NNW 3.5 mph - N/A   Overcast
12:35 AM 35.2 °F 29.5 °F 31.6 °F 87% 30.10 in 10.0 mi NNW 6.9 mph - N/A   Overcast
12:54 AM 35.6 °F 31.7 °F 31.3 °F 84% 30.10 in 10.0 mi NNW 4.6 mph - N/A   Overcast
1:14 AM 35.1 °F 32.2 °F 31.3 °F 86% 30.11 in 10.0 mi NW 3.5 mph - N/A   Overcast
1:35 AM 34.2 °F 30.0 °F 32.0 °F 92% 30.12 in 10.0 mi NW 4.6 mph - N/A   Mostly Cloudy
1:54 AM 34.3 °F 30.2 °F 32.4 °F 92% 30.12 in 10.0 mi NNW 4.6 mph - N/A   Overcast
2:14 AM 34.0 °F 31.0 °F 32.4 °F 94% 30.13 in 10.0 mi NNW 3.5 mph - N/A   Overcast
2:35 AM 34.2 °F - 32.5 °F 94% 30.13 in 10.0 mi Calm Calm - N/A Snow Light Snow
3:14 AM 34.2 °F 31.2 °F 32.2 °F 92% 30.13 in 10.0 mi NW 3.5 mph - N/A   Overcast
3:35 AM 34.7 °F - 32.2 °F 91% 30.13 in 10.0 mi Calm Calm - N/A   Overcast
3:54 AM 34.5 °F 31.6 °F 32.0 °F 90% 30.14 in 10.0 mi NW 3.5 mph - N/A   Overcast
4:14 AM 34.3 °F 27.7 °F 32.0 °F 91% 30.14 in 10.0 mi WNW 8.1 mph - N/A   Overcast
4:35 AM 34.3 °F 29.2 °F 32.0 °F 91% 30.14 in 10.0 mi NW 5.8 mph - N/A   Overcast
4:54 AM 34.0 °F 31.0 °F 32.0 °F 92% 30.14 in 10.0 mi NW 3.5 mph - N/A   Overcast
5:15 AM 34.0 °F 28.8 °F 31.1 °F 89% 30.14 in 10.0 mi NNW 5.8 mph - N/A   Overcast
5:35 AM 33.8 °F 30.8 °F 31.3 °F 90% 30.14 in 10.0 mi NW 3.5 mph - N/A   Overcast
5:54 AM 33.6 °F 29.4 °F 31.5 °F 92% 30.15 in 10.0 mi WNW 4.6 mph - N/A   Overcast
6:15 AM 33.4 °F 29.1 °F 31.3 °F 92% 30.15 in 10.0 mi NW 4.6 mph - N/A   Overcast
6:35 AM 33.6 °F 29.4 °F 31.5 °F 92% 30.15 in 10.0 mi NW 4.6 mph - N/A   Overcast
6:54 AM 33.8 °F 30.8 °F 31.5 °F 91% 30.15 in 10.0 mi NW 3.5 mph - N/A   Overcast
7:15 AM 33.8 °F - 31.5 °F 91% 30.15 in 10.0 mi Calm Calm - N/A   Overcast
7:35 AM 33.8 °F - 31.5 °F 91% 30.15 in 10.0 mi Calm Calm - N/A   Overcast
7:54 AM 33.8 °F - 31.5 °F 91% 30.15 in 10.0 mi Calm Calm - N/A   Overcast
8:15 AM 33.4 °F 30.4 °F 31.6 °F 93% 30.15 in 10.0 mi NNE 3.5 mph - N/A   Overcast
8:34 AM 33.4 °F - 31.6 °F 93% 30.16 in 10.0 mi Calm Calm - N/A   Overcast
8:54 AM 33.6 °F - 31.8 °F 93% 30.16 in 10.0 mi Calm Calm - N/A   Overcast
9:15 AM 34.0 °F - 32.0 °F 92% 30.16 in 10.0 mi Calm Calm - N/A   Overcast
9:34 AM 34.2 °F 30.0 °F 32.0 °F 92% 30.17 in 10.0 mi North 4.6 mph - N/A   Overcast
9:54 AM 34.7 °F 30.6 °F 32.0 °F 90% 30.18 in 10.0 mi NNW 4.6 mph - N/A   Overcast
10:15 AM 35.6 °F 29.9 °F 31.1 °F 84% 30.18 in 10.0 mi NNW 6.9 mph - N/A   Overcast
10:54 AM 36.1 °F 31.4 °F 28.4 °F 73% 30.18 in 10.0 mi North 5.8 mph - N/A   Overcast
11:15 AM 36.9 °F 33.1 °F 27.9 °F 70% 30.19 in 10.0 mi NNE 4.6 mph - N/A   Overcast
11:34 AM 37.4 °F 31.4 °F 28.0 °F 69% 30.19 in 10.0 mi North 8.1 mph - N/A   Overcast
11:54 AM 37.2 °F 33.6 °F 27.5 °F 68% 30.19 in 10.0 mi North 4.6 mph - N/A   Overcast
12:15 PM 37.0 °F 33.3 °F 27.9 °F 69% 30.18 in 10.0 mi NNE 4.6 mph - N/A   Overcast
12:34 PM 37.0 °F 33.3 °F 27.0 °F 67% 30.19 in 10.0 mi North 4.6 mph - N/A   Overcast
12:54 PM 37.4 °F 32.1 °F 27.1 °F 66% 30.19 in 10.0 mi NNE 6.9 mph - N/A   Overcast
1:15 PM 38.1 °F 32.3 °F 27.7 °F 66% 30.18 in 10.0 mi North 8.1 mph - N/A   Overcast
1:34 PM 38.5 °F 33.4 °F 27.0 °F 63% 30.18 in 10.0 mi North 6.9 mph - N/A   Overcast
1:54 PM 39.0 °F 34.8 °F 27.1 °F 62% 30.18 in 10.0 mi North 5.8 mph - N/A   Overcast
2:15 PM 39.4 °F 36.1 °F 27.0 °F 61% 30.17 in 10.0 mi North 4.6 mph - N/A   Overcast
2:34 PM 39.9 °F 35.1 °F 27.5 °F 61% 30.16 in 10.0 mi North 6.9 mph - N/A   Overcast
2:54 PM 39.9 °F 37.8 °F 27.5 °F 61% 30.16 in 10.0 mi North 3.5 mph - N/A   Overcast
3:15 PM 40.5 °F 36.5 °F 27.3 °F 59% 30.16 in 10.0 mi North 5.8 mph - N/A   Overcast
3:34 PM 40.1 °F - 27.3 °F 60% 30.15 in 10.0 mi Calm Calm - N/A   Overcast
3:54 PM 41.0 °F 35.8 °F 27.9 °F 60% 30.15 in 10.0 mi NNE 8.1 mph - N/A   Overcast
4:15 PM 41.0 °F 37.1 °F 27.5 °F 59% 30.15 in 10.0 mi North 5.8 mph - N/A   Mostly Cloudy
4:34 PM 41.2 °F 37.3 °F 27.1 °F 57% 30.16 in 10.0 mi NW 5.8 mph - N/A   Mostly Cloudy
4:54 PM 41.4 °F 38.4 °F 27.3 °F 57% 30.16 in 10.0 mi North 4.6 mph - N/A   Mostly Cloudy
5:15 PM 41.0 °F 38.0 °F 27.1 °F 58% 30.16 in 10.0 mi NNE 4.6 mph - N/A   Overcast
5:34 PM 40.6 °F 37.5 °F 27.1 °F 59% 30.15 in 10.0 mi NNE 4.6 mph - N/A   Overcast
5:54 PM 39.9 °F 35.8 °F 27.1 °F 60% 30.15 in 10.0 mi ENE 5.8 mph - N/A   Overcast
6:15 PM 39.6 °F 35.4 °F 27.3 °F 62% 30.16 in 10.0 mi NNE 5.8 mph - N/A   Overcast
6:34 PM 39.2 °F 33.0 °F 27.5 °F 63% 30.15 in 10.0 mi NNE 9.2 mph - N/A   Overcast
6:54 PM 38.7 °F 32.9 °F 28.0 °F 66% 30.16 in 10.0 mi North 8.1 mph - N/A   Overcast
7:15 PM 38.3 °F 32.5 °F 27.3 °F 65% 30.16 in 10.0 mi NNE 8.1 mph - N/A   Overcast
7:34 PM 38.3 °F 33.9 °F 27.1 °F 64% 30.16 in 10.0 mi NNE 5.8 mph - N/A   Overcast
7:55 PM 37.9 °F 32.7 °F 26.6 °F 64% 30.16 in 10.0 mi NNE 6.9 mph - N/A   Overcast
8:15 PM 37.6 °F 32.3 °F 26.8 °F 65% 30.17 in 10.0 mi North 6.9 mph - N/A   Overcast
8:34 PM 37.4 °F 30.3 °F 26.4 °F 65% 30.17 in 10.0 mi NNE 10.4 mph - N/A   Overcast
8:55 PM 37.0 °F 31.0 °F 25.5 °F 63% 30.17 in 10.0 mi NE 8.1 mph - N/A   Overcast
9:15 PM 36.9 °F 32.2 °F 25.7 °F 64% 30.18 in 10.0 mi NNE 5.8 mph - N/A   Overcast
9:34 PM 36.5 °F 31.0 °F 25.2 °F 64% 30.18 in 10.0 mi NNE 6.9 mph - N/A   Overcast
9:55 PM 36.5 °F 29.2 °F 25.2 °F 64% 30.18 in 10.0 mi NE 10.4 mph - N/A   Overcast
10:15 PM 36.5 °F 31.0 °F 25.3 °F 64% 30.19 in 10.0 mi North 6.9 mph - N/A   Overcast
10:34 PM 36.3 °F 31.6 °F 25.7 °F 65% 30.18 in 10.0 mi North 5.8 mph - N/A   Overcast
10:55 PM 36.1 °F 30.6 °F 25.7 °F 66% 30.18 in 10.0 mi North 6.9 mph - N/A   Overcast
11:15 PM 36.1 °F 31.4 °F 25.7 °F 66% 30.18 in 10.0 mi North 5.8 mph - N/A   Overcast
11:34 PM 36.0 °F 32.1 °F 25.9 °F 67% 30.18 in 10.0 mi North 4.6 mph - N/A   Overcast
11:55 PM 35.8 °F 31.9 °F 25.7 °F 67% 30.19 in 10.0 mi NNE 4.6 mph - N/A   Overcast